DW2893 Weather Reports


Display with metric or nautical units.
time (UTC)temp
F
wind
direction
speed
MPH
gust
MPH
rain 1hr
in
rain 24hr
in
rain mn
in
humidity
%
barometer
mb
20260831121307 81 131 5.0 9.0 0.00 0.00 0.00 70 1014.1
20260831120806 81 193 5.0 9.0 0.00 0.00 0.00 70 1013.9
20260831120307 81 172 5.0 8.0 0.00 0.00 0.00 71 1013.9
20260831115806 81 193 4.0 7.0 0.00 0.00 0.00 71 1013.9
20260831115306 82 200 4.0 9.0 0.00 0.00 0.00 70 1013.9
20260831114807 82 200 3.0 8.0 0.00 0.00 0.00 70 1013.7
20260831114307 82 202 4.0 10.0 0.00 0.00 0.00 70 1013.7
20260831113807 82 193 5.0 9.0 0.00 0.00 0.00 70 1013.6
20260831113306 82 212 4.0 9.0 0.00 0.00 0.00 70 1013.6
20260831112806 82 193 5.0 10.0 0.00 0.00 0.00 69 1013.5
20260831112307 82 299 3.0 12.0 0.00 0.00 0.00 70 1013.5
20260831111306 82 200 4.0 9.0 0.00 0.00 0.00 69 1013.5
20260831105306 83 208 5.0 10.0 0.00 0.00 0.00 69 1013.4
20260831104806 83 152 5.0 10.0 0.00 0.00 0.00 68 1013.3
20260831103806 83 221 5.0 12.0 0.00 0.00 0.00 68 1013.3
20260831102805 83 1 5.0 13.0 0.00 0.00 0.00 67 1013.2
20260831102306 83 188 5.0 9.0 0.00 0.00 0.00 67 1013.2
20260831101806 83 184 4.0 8.0 0.00 0.00 0.00 67 1013.2
20260831101306 83 190 5.0 8.0 0.00 0.00 0.00 66 1013.2
20260831100306 83 202 5.0 8.0 0.00 0.00 0.00 66 1013.2
20260831095806 83 220 5.0 9.0 0.00 0.00 0.00 65 1013.2
20260831094806 83 208 3.0 10.0 0.00 0.00 0.00 64 1013.2
20260831092806 84 232 5.0 9.0 0.00 0.00 0.00 63 1012.8
20260831085806 85 199 6.0 12.0 0.00 0.00 0.00 60 1012.8
20260831084806 85 223 5.0 10.0 0.00 0.00 0.00 59 1012.8
20260831084305 85 189 5.0 9.0 0.00 0.00 0.00 59 1012.9
20260831082805 86 219 5.0 12.0 0.00 0.00 0.00 56 1012.8
20260831082307 86 238 5.0 12.0 0.00 0.00 0.00 56 1012.8
20260831081806 86 248 5.0 15.0 0.00 0.00 0.00 55 1012.8
20260831080806 86 272 7.0 13.0 0.00 0.00 0.00 54 1012.9
20260831080305 86 323 7.0 15.0 0.00 0.00 0.00 54 1012.7
20260831075805 86 283 7.0 14.0 0.00 0.00 0.00 53 1012.7
20260831075306 86 221 6.0 14.0 0.00 0.00 0.00 53 1012.7
20260831073305 86 202 3.0 8.0 0.00 0.00 0.00 53 1012.6
20260831072805 86 201 3.0 6.0 0.00 0.00 0.00 52 1012.6
20260831071805 87 169 3.0 7.0 0.00 0.00 0.00 52 1012.7
20260831065806 87 353 5.0 8.0 0.00 0.00 0.00 52 1012.7
20260831064305 87 195 3.0 5.0 0.00 0.00 0.00 53 1012.7
20260831063806 87 173 4.0 7.0 0.00 0.00 0.00 53 1012.7
20260831062306 87 197 3.0 7.0 0.00 0.00 0.00 53 1012.6
20260831061805 87 199 3.0 7.0 0.00 0.00 0.00 53 1012.6
20260831060805 87 186 3.0 5.0 0.00 0.00 0.00 52 1012.9
20260831060305 87 198 3.0 6.0 0.00 0.00 0.00 51 1012.9
20260831055805 88 183 3.0 7.0 0.00 0.00 0.00 51 1012.9
20260831055306 88 216 4.0 6.0 0.00 0.00 0.00 51 1012.9
20260831053305 88 157 5.0 9.0 0.00 0.00 0.00 50 1012.8
20260831052805 88 209 5.0 7.0 0.00 0.00 0.00 50 1012.8
20260831052307 88 225 4.0 9.0 0.00 0.00 0.00 50 1012.6
20260831051805 88 172 4.0 7.0 0.00 0.00 0.00 50 1012.6
20260831051305 88 357 3.0 7.0 0.00 0.00 0.00 49 1012.6
20260831050305 89 246 5.0 9.0 0.00 0.00 0.00 49 1012.5
20260831045306 89 357 4.0 7.0 0.00 0.00 0.00 49 1012.5
20260831044305 89 165 4.0 7.0 0.00 0.00 0.00 48 1012.6
20260831043805 89 214 3.0 7.0 0.00 0.00 0.00 48 1012.6
20260831042804 89 160 5.0 8.0 0.00 0.00 0.00 48 1012.6
20260831042307 89 41 6.0 8.0 0.00 0.00 0.00 48 1012.6
20260831040305 89 354 4.0 6.0 0.00 0.00 0.00 47 1012.5
20260831035805 90 169 4.0 7.0 0.00 0.00 0.00 47 1012.5
20260831035307 90 160 5.0 5.0 0.00 0.00 0.00 47 1012.5
20260831033805 90 155 3.0 6.0 0.00 0.00 0.00 46 1012.4
20260831032306 90 51 5.0 7.0 0.00 0.00 0.00 46 1012.3
20260831031804 91 121 3.0 6.0 0.00 0.00 0.00 46 1012.3
20260831030805 91 151 3.0 6.0 0.00 0.00 0.00 45 1012.3
20260831025805 91 119 4.0 6.0 0.00 0.00 0.00 45 1012.3
20260831025306 91 147 3.0 6.0 0.00 0.00 0.00 45 1012.2
20260831023805 92 142 3.0 5.0 0.00 0.00 0.00 44 1011.9
20260831023304 92 152 2.0 5.0 0.00 0.00 0.00 44 1011.9
20260831020304 93 29 5.0 8.0 0.00 0.00 0.00 42 1011.5
20260831015805 93 113 4.0 7.0 0.00 0.00 0.00 42 1011.2
20260831013305 94 73 5.0 7.0 0.00 0.00 0.00 41 1011.1
20260831012804 94 137 4.0 7.0 0.00 0.00 0.00 40 1011.1
20260831012306 94 19 4.0 7.0 0.00 0.00 0.00 40 1011.1
20260831011804 94 145 3.0 9.0 0.00 0.00 0.00 40 1011.1
20260831004805 95 107 5.0 12.0 0.00 0.00 0.00 39 1011.0
20260831004304 96 95 5.0 12.0 0.00 0.00 0.00 38 1011.0
20260831003804 96 130 5.0 13.0 0.00 0.00 0.00 38 1010.9
20260831001309 97 133 7.0 12.0 0.00 0.00 0.00 38 1011.0
20260831000808 97 50 8.0 17.0 0.00 0.00 0.00 38 1011.1
20260831000310 97 41 6.0 12.0 0.00 0.00 0.00 38 1011.2
20260830235808 97 128 7.0 14.0 0.00 0.00 0.00 37 1011.2
20260830234808 98 134 5.0 12.0 0.00 0.00 0.00 36 1011.1
20260830233808 99 119 6.0 14.0 0.00 0.00 0.00 35 1011.1
20260830232808 99 106 5.0 12.0 0.00 0.00 0.00 36 1011.1
20260830231808 100 98 6.0 14.0 0.00 0.00 0.00 34 1011.1
20260830230808 100 95 3.0 8.0 0.00 0.00 0.00 32 1011.2
20260830230308 100 170 2.0 8.0 0.00 0.00 0.00 33 1011.2
20260830225308 100 98 7.0 12.0 0.00 0.00 0.00 32 1011.2
20260830223808 100 40 8.0 14.0 0.00 0.00 0.00 33 1011.4
20260830223308 100 32 6.0 12.0 0.00 0.00 0.00 33 1011.4
20260830222808 99 120 3.0 14.0 0.00 0.00 0.00 34 1011.4
20260830222308 99 81 6.0 12.0 0.00 0.00 0.00 34 1011.3
20260830220808 100 73 11.0 18.0 0.00 0.00 0.00 33 1011.2
20260830215808 100 16 9.0 14.0 0.00 0.00 0.00 35 1011.3
20260830214808 98 132 6.0 10.0 0.00 0.00 0.00 36 1011.4
20260830213808 99 80 6.0 13.0 0.00 0.00 0.00 34 1011.6
20260830212308 100 48 10.0 20.0 0.00 0.00 0.00 34 1011.7
20260830205807 99 147 8.0 13.0 0.00 0.00 0.00 35 1011.9
20260830204807 100 146 6.0 16.0 0.00 0.00 0.00 34 1011.9
20260830204308 100 23 8.0 14.0 0.00 0.00 0.00 35 1012.3
20260830203808 100 24 6.0 12.0 0.00 0.00 0.00 35 1012.3
20260830202808 100 2 11.0 16.0 0.00 0.00 0.00 35 1012.3
20260830202308 100 131 6.0 20.0 0.00 0.00 0.00 34 1012.5
20260830201808 101 60 9.0 18.0 0.00 0.00 0.00 34 1012.5
20260830193807 100 23 8.0 20.0 0.00 0.00 0.00 36 1013.0
20260830193308 100 337 7.0 15.0 0.00 0.00 0.00 37 1013.0
20260830191808 100 355 9.0 15.0 0.00 0.00 0.00 38 1013.6
20260830185307 99 333 8.0 16.0 0.00 0.00 0.00 39 1013.6
20260830182307 99 243 7.0 14.0 0.00 0.00 0.00 40 1013.7
20260830181307 98 355 5.0 13.0 0.00 0.00 0.00 41 1014.2
20260830180307 98 345 7.0 15.0 0.00 0.00 0.00 43 1014.2
20260830175807 97 210 6.0 14.0 0.00 0.00 0.00 44 1014.2
20260830175307 97 349 9.0 20.0 0.00 0.00 0.00 43 1014.2
20260830174807 97 326 7.0 17.0 0.00 0.00 0.00 45 1014.6
20260830173807 97 63 7.0 18.0 0.00 0.00 0.00 45 1014.6
20260830172807 97 268 6.0 12.0 0.00 0.00 0.00 45 1014.6
20260830172307 96 239 5.0 12.0 0.00 0.00 0.00 46 1014.9
20260830170307 96 259 6.0 15.0 0.00 0.00 0.00 46 1014.9
20260830164807 95 7 9.0 16.0 0.00 0.00 0.00 48 1015.1
20260830163807 95 339 5.0 12.0 0.00 0.00 0.00 48 1015.3
20260830163307 95 184 6.0 15.0 0.00 0.00 0.00 49 1015.3
20260830155807 93 274 5.0 14.0 0.00 0.00 0.00 52 1015.2
20260830154307 92 205 4.0 9.0 0.00 0.00 0.00 56 1015.2
20260830152806 91 357 6.0 13.0 0.00 0.00 0.00 56 1015.3
20260830150806 89 166 5.0 10.0 0.00 0.00 0.00 59 1015.2
20260830143307 86 205 5.0 12.0 0.00 0.00 0.00 63 1015.2
20260830142806 86 230 4.0 10.0 0.00 0.00 0.00 63 1015.2
20260830141307 85 216 6.0 12.0 0.00 0.00 0.00 65 1015.4
20260830140807 84 275 5.0 8.0 0.00 0.00 0.00 67 1015.4
20260830135306 83 327 5.0 9.0 0.00 0.00 0.00 68 1015.1
20260830134306 83 355 6.0 10.0 0.00 0.00 0.00 69 1015.1
20260830133807 82 6 4.0 6.0 0.00 0.00 0.00 70 1015.1
20260830132807 82 175 3.0 7.0 0.00 0.00 0.00 70 1015.1
20260830131806 81 43 3.0 7.0 0.00 0.00 0.00 70 1015.0
20260830130806 81 135 4.0 7.0 0.00 0.00 0.00 71 1015.0
20260830125806 80 126 4.0 6.0 0.00 0.00 0.00 71 1014.7
20260830125307 80 154 2.0 5.0 0.00 0.00 0.00 71 1014.7
20260830124306 80 154 3.0 6.0 0.00 0.00 0.00 71 1014.6
20260830123806 79 144 2.0 5.0 0.00 0.00 0.00 70 1014.4
20260830123306 79 127 2.0 7.0 0.00 0.00 0.00 70 1014.4
20260830122307 79 171 3.0 5.0 0.00 0.00 0.00 70 1014.3